Regional Weather Roundup
Issued by NWS

Home | Current Version | Previous Version | Text Only | Print | Product List | Glossary Off
Versions: 1 2 3 4 5 6 7 8 9 10 11 12 13 14 15 16 17 18 19 20 21 22 23 24 25 26 27 28 29 30 31 32 33 34 35 36 37 38 39 40 41 42 43 44 45 46 47 48 49 50

000
ASUS43 KBIS 012110
RWRND

NORTH DAKOTA REGIONAL WEATHER ROUNDUP
NATIONAL WEATHER SERVICE BISMARCK ND
400 PM CDT SAT AUG 01 2015

NOTE: "FAIR" INDICATES FEW OR NO CLOUDS BELOW 12,000 FEET WITH NO
SIGNIFICANT WEATHER AND/OR OBSTRUCTIONS TO VISIBILITY.


NDZ001>003-009>011-017-012200-
NORTHWEST NORTH DAKOTA

CITY           SKY/WX    TMP DP  RH WIND       PRES   REMARKS
WILLISTON      SUNNY     95  44  17 S8        29.78F HX  91
MINOT          SUNNY     89  45  21 S6        29.80F
MINOT AFB      SUNNY     91  50  24 SW7       29.79F
$$

NDZ018>021-031>035-040>046-012200-
SOUTHWEST NORTH DAKOTA

CITY           SKY/WX    TMP DP  RH WIND       PRES   REMARKS
BISMARCK       SUNNY     89  59  36 VRB7      29.82F
DICKINSON      SUNNY     92  38  15 VRB3      29.86F
GARRISON         N/A     85  58  39 S3        29.83F
HETTINGER ARPT SUNNY     93  37  14 VRB7G18   29.91F
$$

NDZ004>008-012>016-024-026-027-054-012200-
NORTHEAST NORTH DAKOTA

CITY           SKY/WX    TMP DP  RH WIND       PRES   REMARKS
GRAND FORKS    MOSUNNY   86  59  39 SW7       29.79F
GRND FRKS AFB  SUNNY     85  59  42 S8        29.80F
DEVILS LAKE    SUNNY     86  52  30 SW8       29.80F
$$

NDZ022-023-025-028>030-036>039-047>053-012200-
SOUTHEAST NORTH DAKOTA

CITY           SKY/WX    TMP DP  RH WIND       PRES   REMARKS
FARGO          SUNNY     87  57  35 S10G18    29.80F
JAMESTOWN      SUNNY     85  63  47 SE8       29.81F
$$



USA.gov is the U.S. government's official web portal to all federal, state and local government web resources and services.